Location: Centerville
(32.8776°N, 96.6203°W)
Time: 11:02:59
(UTC+00:00)

Cosmos 2056 Rocket - Pass Details

Date: 17 June 2021
Orbit: 741 x 801 km, 74.0° (Epoch: 30 July)

Event Time Altitude Azimuth Distance (km) Brightness Sun altitude
Rises 01:55:12 0° 184° (S) 3,175 6.4 -4.2°
Reaches altitude 10° 01:57:34 10° 181° (S) 2,262 5.6 -4.6°
Maximum altitude 02:02:35 57° 103° (ESE) 893 3.6 -5.5°
Drops below altitude 10° 02:07:42 10° 26° (NNE) 2,311 6.1 -6.4°
Sets 02:10:08 0° 22° (NNE) 3,251 6.9 -6.8°
